TimeCST,TemperatureF,Dew PointF,Humidity,Sea Level PressureIn,VisibilityMPH,Wind Direction,Wind SpeedMPH,Gust SpeedMPH,PrecipitationIn,Events,Conditions,WindDirDegrees,DateUTC
12:52 AM,24.1,21.0,88,30.22,9.0,Calm,Calm,-,N/A,,Overcast,0,2011-12-08 06:52:00
1:52 AM,17.1,14.0,88,30.22,7.0,Calm,Calm,-,N/A,,Clear,0,2011-12-08 07:52:00
2:26 AM,17.6,15.8,93,30.18,2.0,SE,4.6,-,N/A,,Clear,140,2011-12-08 08:26:00
2:36 AM,17.6,14.0,86,30.19,5.0,Calm,Calm,-,N/A,,Clear,0,2011-12-08 08:36:00
2:52 AM,17.1,15.1,92,30.24,5.0,Calm,Calm,-,N/A,,Scattered Clouds,0,2011-12-08 08:52:00
3:52 AM,15.1,12.0,88,30.24,4.0,Calm,Calm,-,N/A,,Clear,0,2011-12-08 09:52:00
4:52 AM,19.9,17.1,89,30.25,6.0,Calm,Calm,-,N/A,,Overcast,0,2011-12-08 10:52:00
5:52 AM,19.9,17.1,89,30.28,7.0,Calm,Calm,-,N/A,,Overcast,0,2011-12-08 11:52:00
6:52 AM,21.9,19.0,89,30.29,7.0,Calm,Calm,-,N/A,,Overcast,0,2011-12-08 12:52:00
7:52 AM,21.0,18.0,88,30.28,6.0,Calm,Calm,-,N/A,,Partly Cloudy,0,2011-12-08 13:52:00
8:52 AM,23.0,19.9,88,30.30,8.0,North,8.1,-,N/A,,Clear,360,2011-12-08 14:52:00
9:52 AM,28.0,19.9,72,30.32,10.0,North,13.8,-,N/A,,Mostly Cloudy,350,2011-12-08 15:52:00
10:52 AM,28.0,18.0,66,30.33,10.0,North,15.0,-,N/A,,Overcast,360,2011-12-08 16:52:00
11:52 AM,28.0,17.1,63,30.32,10.0,NNE,11.5,-,N/A,,Overcast,20,2011-12-08 17:52:00
12:16 PM,26.6,17.6,69,30.28,5.0,North,11.5,-,N/A,,Haze,10,2011-12-08 18:16:00
12:52 PM,26.1,19.0,75,30.32,10.0,North,5.8,-,N/A,,Overcast,350,2011-12-08 18:52:00
1:52 PM,26.1,18.0,71,30.31,5.0,North,5.8,-,0.00,Snow,Light Snow,350,2011-12-08 19:52:00
2:52 PM,25.0,17.1,72,30.30,10.0,NW,8.1,-,0.00,,Overcast,310,2011-12-08 20:52:00
3:52 PM,25.0,17.1,72,30.31,10.0,WNW,6.9,-,N/A,,Overcast,300,2011-12-08 21:52:00
3:57 PM,24.8,15.8,69,30.25,6.0,NW,8.1,-,N/A,,Haze,310,2011-12-08 21:57:00
4:18 PM,24.8,17.6,74,30.26,2.0,North,9.2,-,0.00,Snow,Light Snow,350,2011-12-08 22:18:00
4:26 PM,24.8,17.6,74,30.26,2.0,NNW,8.1,-,0.00,Snow,Light Snow,340,2011-12-08 22:26:00
4:33 PM,24.8,17.6,74,30.26,2.0,NNW,5.8,-,0.00,Snow,Light Snow,330,2011-12-08 22:33:00
4:52 PM,24.1,18.0,77,30.31,2.0,NNW,5.8,-,0.00,Snow,Light Snow,330,2011-12-08 22:52:00
5:30 PM,23.0,19.4,86,30.25,2.0,Calm,Calm,-,0.00,Snow,Light Snow,0,2011-12-08 23:30:00
5:52 PM,23.0,19.9,88,30.31,2.0,West,3.5,-,0.00,Snow,Light Snow,270,2011-12-08 23:52:00
5:59 PM,23.0,19.4,86,30.26,1.5,West,4.6,-,0.01,Snow,Light Snow,280,2011-12-08 23:59:00
6:52 PM,23.0,19.9,88,30.32,1.5,WNW,11.5,-,0.03,Snow,Light Snow,300,2011-12-09 00:52:00
6:56 PM,21.2,19.4,93,30.26,5.0,WNW,9.2,-,N/A,Snow,Light Snow,300,2011-12-09 00:56:00
7:52 PM,21.9,17.1,82,30.32,10.0,West,9.2,-,0.00,,Overcast,280,2011-12-09 01:52:00
8:52 PM,19.9,15.1,81,30.32,10.0,West,9.2,-,N/A,,Overcast,280,2011-12-09 02:52:00
9:52 PM,15.1,10.9,84,30.34,10.0,WNW,6.9,-,N/A,,Partly Cloudy,290,2011-12-09 03:52:00
10:52 PM,12.9,10.0,88,30.35,10.0,WNW,5.8,-,N/A,,Partly Cloudy,290,2011-12-09 04:52:00
11:52 PM,12.0,9.0,88,30.36,10.0,WNW,3.5,-,N/A,,Mostly Cloudy,290,2011-12-09 05:52:00